Location: Beneden-Haastrecht
(52.0012°N, 4.7557°E)
Time: 05:36:28
(UTC+00:00)

Cosmos 1697 Rocket - Pass Details

Date: 24 October 2020
Orbit: 831 x 845 km, 71.0° (Epoch: 25 November)

Event Time Altitude Azimuth Distance (km) Brightness Sun altitude
Rises 18:28:27 0° 175° (S) 3,365 5.7 -19.2°
Reaches altitude 10° 18:31:07 10° 164° (SSE) 2,437 4.9 -19.7°
Enters shadow 18:33:06 20° 150° (SSE) 1,855 4.1 -20.0°
